Weather History for Morgantown, WV

Change the Weather History Date:

Friday, December 17, 2004

  Actual Average Record
Temperature  
Mean Temperature 32 °F 34 °F  
Max Temperature 39 °F 42 °F 68 °F (1984)
Min Temperature 26 °F 27 °F 2 °F (1951)
Degree Days  
Heating Degree Days 32 31  
Month to date heating degree days 485  
Since 1 July heating degree days 1533  
Cooling Degree Days 0 0  
Month to date cooling degree days 0  
Year to date cooling degree days 814  
Moisture  
Dew Point 24 °F    
Average Humidity 64    
Maximum Humidity 92    
Minimum Humidity 36    
Precipitation  
Precipitation 0.00 in 0.09 in 1.00 in (2012)
Month to date precipitation 1.68  
Year to date precipitation 40.60  
Sea Level Pressure  
Sea Level Pressure 30.27 in    
Wind  
Wind Speed 5 mph (West)    
Max Wind Speed 10 mph    
Max Gust Speed 16 mph    
Visibility 10 miles    
Events      
T = Trace of Precipitation, MM = Missing Value Source: NWS Daily Summary

Daily Weather History Graph

Daily Weather History Graph

Search for Another Location

Airport:

Trip Planner

Search our weather history database for the weather conditions in past years. The results will help you decide how hot, cold, wet, or windy it might be!

Date:

Astronomy

Dec. 17, 2004 Rise Set
Actual Time 7:34 AM EST 4:57 PM EST
Civil Twilight 7:04 AM EST 5:27 PM EST
Nautical Twilight 6:30 AM EST 6:01 PM EST
Astronomical Twilight 5:57 AM EST 6:34 PM EST
Moon 12:13 PM EST (12/17) 11:37 PM EST (12/17)
Length of Visible Light 10h 23m
Length of Day
9h 22m
Waxing Crescent, 39% of the Moon is Illuminated
Dec 17
Waxing Crescent
Dec 18
First Quarter
Dec 26
Full
Jan 3
Last Quarter
Jan 10
New

Hourly Weather History & Observations

Time (EST) Temp. Windchill Dew Point Humidity Pressure Visibility Wind Dir Wind Speed Gust Speed Precip Events Conditions
12:53 AM 39.9 °F 35.8 °F 15.1 °F 36% 30.22 in 10.0 mi West 5.8 mph 16.1 mph N/A   Overcast
1:53 AM 39.0 °F 32.3 °F 19.0 °F 45% 30.23 in 10.0 mi West 10.4 mph - 0.00 in   Overcast
2:53 AM 39.0 °F 35.7 °F 19.0 °F 45% 30.23 in 10.0 mi Variable 4.6 mph - N/A   Overcast
3:53 AM 37.9 °F 32.7 °F 21.0 °F 51% 30.24 in 10.0 mi Variable 6.9 mph - N/A   Overcast
4:53 AM 37.9 °F 33.5 °F 23.0 °F 55% 30.25 in 10.0 mi Variable 5.8 mph - N/A   Overcast
5:53 AM 37.0 °F 31.0 °F 24.1 °F 59% 30.27 in 10.0 mi West 8.1 mph - N/A   Overcast
6:53 AM 36.0 °F 33.3 °F 25.0 °F 64% 30.27 in 10.0 mi Variable 3.5 mph - N/A   Overcast
7:53 AM 36.0 °F 32.1 °F 25.0 °F 64% 30.29 in 10.0 mi Variable 4.6 mph - N/A   Overcast
8:53 AM 36.0 °F 32.1 °F 26.1 °F 67% 30.31 in 10.0 mi WNW 4.6 mph - N/A   Overcast
9:53 AM 36.0 °F 32.1 °F 26.1 °F 67% 30.32 in 10.0 mi West 4.6 mph - N/A   Overcast
10:53 AM 37.0 °F 32.4 °F 27.0 °F 67% 30.33 in 10.0 mi WNW 5.8 mph - N/A   Overcast
11:01 AM 37.4 °F 34.9 °F 26.6 °F 65% 30.30 in 10.0 mi West 3.5 mph - N/A   Overcast
11:28 AM 39.2 °F 35.9 °F 26.6 °F 61% 30.29 in 10.0 mi Variable 4.6 mph - N/A   Overcast
11:39 AM 37.4 °F 34.9 °F 26.6 °F 65% 30.28 in 10.0 mi Variable 3.5 mph - N/A   Overcast
11:53 AM 37.9 °F 33.5 °F 26.1 °F 62% 30.31 in 10.0 mi WNW 5.8 mph - N/A   Overcast
12:53 PM 37.9 °F 35.5 °F 24.1 °F 57% 30.29 in 10.0 mi Variable 3.5 mph - N/A   Overcast
1:53 PM 39.0 °F 35.7 °F 26.1 °F 60% 30.29 in 10.0 mi Variable 4.6 mph - N/A   Overcast
2:53 PM 37.9 °F 34.4 °F 24.1 °F 57% 30.27 in 10.0 mi Variable 4.6 mph - N/A   Overcast
3:53 PM 37.9 °F 35.5 °F 24.1 °F 57% 30.27 in 10.0 mi Variable 3.5 mph - N/A   Overcast
4:53 PM 37.0 °F - 24.1 °F 59% 30.27 in 10.0 mi Calm Calm - N/A   Mostly Cloudy
5:53 PM 35.1 °F - 23.0 °F 61% 30.26 in 10.0 mi Calm Calm - N/A   Clear
6:53 PM 30.0 °F 26.5 °F 23.0 °F 75% 30.27 in 10.0 mi ENE 3.5 mph - N/A   Clear
7:53 PM 30.0 °F - 24.1 °F 79% 30.28 in 10.0 mi Calm Calm - N/A   Clear
8:53 PM 28.9 °F - 24.1 °F 82% 30.27 in 10.0 mi Calm Calm - N/A   Clear
9:53 PM 28.0 °F - 24.1 °F 85% 30.25 in 10.0 mi Calm Calm - N/A   Clear
10:53 PM 26.1 °F - 24.1 °F 92% 30.23 in 10.0 mi Calm Calm - N/A   Clear
11:53 PM 27.0 °F - 24.1 °F 89% 30.21 in 10.0 mi Calm Calm - N/A   Clear